KB4UTZ Weather Reports


time (UTC)temp
F
wind
direction
speed
knots
gust
knots
rain 1hr
in
rain 24hr
in
rain mn
in
humidity
%
barometer
mb
20260504024036 47 305 0.0 1.7 0.00 0.00 0.00 79 1021.2
20260504023036 47 306 0.0 1.7 0.00 0.00 0.00 78 1021.0
20260504022036 47 327 1.7 2.6 0.00 0.00 0.00 77 1020.8
20260504021036 47 329 0.9 1.7 0.00 0.00 0.00 77 1020.9
20260504020036 48 226 0.0 1.7 0.00 0.00 0.00 75 1020.8
20260504015037 48 326 0.9 1.7 0.00 0.00 0.00 74 1020.9
20260504014036 49 0.0 0.9 0.00 0.00 0.00 73 1020.8
20260504013036 49 216 0.0 1.7 0.00 0.00 0.00 71 1020.7
20260504012037 50 0.0 0.9 0.00 0.00 0.00 70 1020.6
20260504011036 51 324 0.9 1.7 0.00 0.00 0.00 68 1020.6
20260504010056 52 246 0.0 1.7 0.00 0.00 0.00 67 1020.5
20260504005036 52 309 0.9 1.7 0.00 0.00 0.00 64 1020.4
20260504004036 53 300 0.9 1.7 0.00 0.00 0.00 63 1020.3
20260504003036 54 275 0.0 0.9 0.00 0.00 0.00 62 1020.3
20260504002036 55 317 0.9 1.7 0.00 0.00 0.00 60 1020.4
20260504001036 55 335 0.9 1.7 0.00 0.00 0.00 59 1020.4
20260504000035 56 348 0.0 1.7 0.00 0.00 0.00 57 1020.5
20260503235036 57 249 0.9 1.7 0.00 0.00 0.00 54 1020.4
20260503234035 58 233 0.9 1.7 0.00 0.00 0.00 51 1020.5
20260503233035 59 297 0.9 1.7 0.00 0.00 0.00 49 1020.6
20260503232035 60 304 0.9 2.6 0.00 0.00 0.00 46 1020.6
20260503231035 61 329 2.6 3.5 0.00 0.00 0.00 44 1020.8
20260503230036 62 311 1.7 3.5 0.00 0.00 0.00 43 1020.7
20260503225036 63 321 0.9 3.5 0.00 0.00 0.00 41 1020.9
20260503224036 64 323 0.9 2.6 0.00 0.00 0.00 40 1020.8
20260503223036 65 291 0.9 3.5 0.00 0.00 0.00 36 1020.9
20260503222036 66 154 2.6 8.7 0.00 0.00 0.00 32 1020.9
20260503221056 67 110 0.9 2.6 0.00 0.00 0.00 33 1020.9
20260503220036 67 183 1.7 4.3 0.00 0.00 0.00 34 1021.0
20260503215035 67 200 1.7 3.5 0.00 0.00 0.00 34 1020.9
20260503214035 67 216 1.7 4.3 0.00 0.00 0.00 34 1021.1
20260503213035 66 248 2.6 6.1 0.00 0.00 0.00 33 1021.2
20260503212055 67 281 2.6 5.2 0.00 0.00 0.00 32 1021.2
20260503211035 67 192 1.7 5.2 0.00 0.00 0.00 34 1021.2
20260503210056 66 202 2.6 3.5 0.00 0.00 0.00 32 1021.2
20260503205036 67 135 2.6 7.0 0.00 0.00 0.00 32 1021.4
20260503204035 67 192 2.6 5.2 0.00 0.00 0.00 33 1021.6
20260503203056 67 128 1.7 5.2 0.00 0.00 0.00 32 1021.8
20260503202035 67 200 2.6 5.2 0.00 0.00 0.00 34 1021.8
20260503201055 67 99 2.6 4.3 0.00 0.00 0.00 33 1022.1
20260503200036 65 205 2.6 4.3 0.00 0.00 0.00 35 1022.1
20260503195036 66 162 3.5 7.8 0.00 0.00 0.00 33 1022.4
20260503194036 65 213 3.5 6.1 0.00 0.00 0.00 36 1022.3
20260503193036 65 127 2.6 7.0 0.00 0.00 0.00 36 1022.4
20260503192035 65 135 3.5 4.3 0.00 0.00 0.00 35 1022.6
20260503191035 65 174 2.6 5.2 0.00 0.00 0.00 37 1022.6
20260503190036 64 181 2.6 6.1 0.00 0.00 0.00 36 1022.8
20260503185036 64 137 2.6 6.1 0.00 0.00 0.00 36 1023.0
20260503184036 63 236 2.6 5.2 0.00 0.00 0.00 37 1023.0
20260503183035 64 162 3.5 5.2 0.00 0.00 0.00 37 1023.1
20260503182036 64 181 4.3 7.8 0.00 0.00 0.00 36 1023.3
20260503181121 62 188 3.5 7.0 0.00 0.00 0.00 37 1023.4
20260503180035 63 207 1.7 5.2 0.00 0.00 0.00 37 1023.3
20260503175035 62 184 2.6 5.2 0.00 0.00 0.00 38 1023.6
20260503174035 62 182 2.6 5.2 0.00 0.00 0.00 39 1023.6
20260503173035 63 206 5.2 8.7 0.00 0.00 0.00 38 1023.8
20260503172035 63 159 1.7 5.2 0.00 0.00 0.00 39 1023.9
20260503171035 61 179 1.7 5.2 0.00 0.00 0.00 40 1023.9
20260503131035 54 101 0.9 1.7 0.00 0.00 0.00 60 1025.3
20260503081034 46 0.0 0.9 0.00 0.00 0.00 82 1022.5
20260503080115 46 0.0 0.9 0.00 0.00 0.00 83 1022.3
20260503072035 47 0.0 1.7 0.00 0.00 0.00 78 1022.2
20260503071034 47 337 0.0 0.9 0.00 0.00 0.00 78 1022.1
20260503055055 48 213 0.0 1.7 0.00 0.00 0.00 77 1021.9
20260503054035 48 304 0.0 0.9 0.00 0.00 0.00 76 1021.9
20260503053034 48 311 0.0 0.9 0.00 0.00 0.00 76 1021.9
20260503052035 49 2 0.0 0.9 0.00 0.00 0.00 77 1021.9
20260503051034 49 238 0.0 1.7 0.00 0.00 0.00 75 1021.8
20260503050034 49 318 0.0 1.7 0.00 0.00 0.00 74 1021.8
20260503045034 49 14 0.0 1.7 0.00 0.00 0.00 74 1021.8
20260503044034 49 0.0 0.9 0.00 0.00 0.00 75 1021.8
20260503043034 49 0.0 1.7 0.00 0.00 0.00 73 1021.9
20260503042034 49 354 0.0 1.7 0.00 0.00 0.00 72 1021.8
20260503041034 49 252 0.0 1.7 0.00 0.00 0.00 74 1021.6
20260503040034 49 344 0.0 1.7 0.00 0.00 0.00 72 1021.6
20260503035034 49 306 0.9 1.7 0.00 0.00 0.00 73 1021.6
20260503034034 49 0.0 1.7 0.00 0.00 0.00 73 1021.6
20260503033054 49 302 0.0 1.7 0.00 0.00 0.00 72 1021.5
20260503032034 49 257 0.0 1.7 0.00 0.00 0.00 72 1021.5
20260503031034 49 0.0 0.9 0.00 0.00 0.00 71 1021.4
20260503030034 49 284 0.9 1.7 0.00 0.00 0.00 70 1021.4
20260503025034 49 272 0.9 1.7 0.00 0.00 0.00 72 1021.2